Flag for U.S.A. Weather past 2 weeks in Boise, Idaho, U.S.A.

Now
53 °F

Passing clouds.


Feels Like: 52 °F
Forecast: 51 / 77 °F
Wind: 5 mph from West

Location: Boise Air Terminal

Current Time: May 3, 2015 at 10:00:44 AM

Latest Report: May 3, 2015 at 8:53 AM


Visibility: 10 mi

Pressure: 29.84 "Hg

Humidity: 47%

Dew point: 33 °F

Location of BoiseLocation

Historic Weather in Boise — Graph

°F

Boise temperature yesterday

Maximum temperature yesterday: 79 °F (at 3:53 PM)
Minimum temperature yesterday: 49 °F (at 6:53 AM)
Average temperature yesterday: 64 °F

Past Weeks' High & Low Weather Summary

 TemperatureHumidityPressure
High81 °F (Apr 28, 4:53 PM)89% (Apr 24, 6:53 AM)30.33 "Hg (Apr 24, 6:53 AM)
Low35 °F (Apr 26, 6:53 AM)10% (May 1, 6:53 PM)29.64 "Hg (Apr 23, 9:53 PM)
Average57 °F38%29.92 "Hg
* Reported Apr 18 8:53 AM — May 3 8:53 AM, Boise, Weather by CustomWeather, © 2015

Note: Actual official high and low records may vary slightly from our data, if they occured in-between our weather recording intervals... More about our weather records

Advertising

Boise weather history for previous 24 hours

 ConditionsComfort  
Time TempWeatherWind HumidityBarometerVisibility
8:53 AM
Sun, May 3
53 °FPassing clouds.5 mph47%29.84 "Hg10 mi
7:53 AM50 °FPassing clouds.No wind50%29.83 "Hg10 mi
6:53 AM47 °FClear.3 mph59%29.80 "Hg10 mi
5:53 AM48 °FPassing clouds.3 mph59%29.80 "Hg10 mi
4:53 AM52 °FClear.No wind50%29.78 "Hg9 mi
3:53 AM50 °FClear.5 mph54%29.79 "Hg10 mi
2:53 AM52 °FClear.No wind53%29.78 "Hg10 mi
1:53 AM54 °FClear.3 mph47%29.77 "Hg10 mi
12:53 AM56 °FClear.5 mph39%29.76 "Hg10 mi
11:53 PM
Sat, May 2
58 °FClear.No wind33%29.75 "Hg10 mi
10:53 PM63 °FClear.7 mph27%29.74 "Hg10 mi
9:53 PM67 °FSunny.8 mph23%29.72 "Hg10 mi
8:53 PM73 °FSunny.6 mph17%29.69 "Hg10 mi
7:53 PM76 °FSunny.15 mph15%29.68 "Hg10 mi
6:53 PM77 °FSunny.12 mph14%29.70 "Hg10 mi
5:53 PM78 °FSunny.14 mph16%29.71 "Hg10 mi
4:53 PM79 °FSunny.13 mph15%29.73 "Hg10 mi
3:53 PM79 °FSunny.12 mph15%29.75 "Hg10 mi
2:53 PM77 °FSunny.14 mph16%29.78 "Hg10 mi
1:53 PM75 °FSunny.6 mph18%29.80 "Hg10 mi
12:53 PM71 °FSunny.3 mph19%29.83 "Hg10 mi
11:53 AM68 °FSunny.3 mph22%29.84 "Hg10 mi
10:53 AM64 °FSunny.No wind25%29.84 "Hg10 mi
Weather by CustomWeather, © 2015

See weather overviewHow to use our weather pages